Weather History for Mansfield, OH

Change the Weather History Date:

Saturday, March 2, 2013

  Actual Average Record
Temperature  
Mean Temperature 26 °F 32 °F  
Max Temperature 29 °F 41 °F 66 °F (1992)
Min Temperature 23 °F 24 °F -6 °F (1980)
Degree Days  
Heating Degree Days 39 33  
Month to date heating degree days 77 66  
Since 1 July heating degree days 4450 4691  
Cooling Degree Days 0 0  
Month to date cooling degree days 0 0  
Year to date cooling degree days 0 0  
Moisture  
Dew Point 21 °F    
Average Humidity 89    
Maximum Humidity 96    
Minimum Humidity 81    
Precipitation  
Precipitation 0.08 in 0.09 in 0.49 in (2012)
Month to date precipitation 0.08 0.18  
Year to date precipitation 4.81 5.44  
Snow  
Snow 1.60 in 0.30 in - ()
Month to date snowfall 1.6 0.7  
Since 1 July snowfall 31.4 38.6  
Snow Depth 1.00 in    
Sea Level Pressure  
Sea Level Pressure 29.99 in    
Wind  
Wind Speed 11 mph (NW)    
Max Wind Speed 17 mph    
Max Gust Speed 22 mph    
Visibility 4 miles    
Events Snow    
T = Trace of Precipitation, MM = Missing Value Source: NWS Daily Summary

Daily Weather History Graph

Daily Weather History Graph

Search for Another Location

Airport:

Trip Planner

Search our weather history database for the weather conditions in past years. The results will help you decide how hot, cold, wet, or windy it might be!

Date:

Astronomy

Mar. 02, 2013 Rise Set
Actual Time 7:02 AM EST 6:22 PM EST
Civil Twilight 6:34 AM EST 6:50 PM EST
Nautical Twilight 6:03 AM EST 7:21 PM EST
Astronomical Twilight 5:31 AM EST 7:53 PM EST
Moon No Moon Rise 9:27 AM EST (3/2)
Length of Visible Light 12h 15m
Length of Day
11h 20m
Waning Gibbous, 74% of the Moon is Illuminated
Mar 2
Waning Gibbous
Mar 4
Last Quarter
Mar 11
New
Mar 19
First Quarter
Mar 27
Full

Hourly Weather History & Observations

Time (EST) Temp. Windchill Dew Point Humidity Pressure Visibility Wind Dir Wind Speed Gust Speed Precip Events Conditions
12:13 AM 24.8 °F 16.1 °F 21.2 °F 86% 29.98 in 4.0 mi NW 8.1 mph - 0.00 in Snow Light Snow
12:52 AM 24.1 °F 16.0 °F 21.9 °F 91% 30.03 in 4.0 mi NW 6.9 mph - 0.00 in Snow Light Snow
1:50 AM 24.8 °F 16.1 °F 21.2 °F 86% 29.98 in 4.0 mi NW 8.1 mph - 0.02 in Snow Light Snow
1:52 AM 25.0 °F 14.2 °F 23.0 °F 92% 30.03 in 4.0 mi NW 11.5 mph - 0.02 in Snow Light Snow
2:17 AM 24.8 °F 15.3 °F 21.2 °F 86% 29.98 in 5.0 mi NW 9.2 mph - 0.00 in Snow Light Snow
2:34 AM 24.8 °F 14.6 °F 21.2 °F 86% 29.97 in 5.0 mi NW 10.4 mph - 0.00 in Snow Light Snow
2:52 AM 24.1 °F 13.7 °F 21.9 °F 91% 30.02 in 7.0 mi NW 10.4 mph - 0.00 in Snow Light Snow
3:28 AM 24.8 °F 14.6 °F 21.2 °F 86% 29.96 in 5.0 mi NW 10.4 mph - N/A Snow Light Snow
3:52 AM 24.1 °F 13.7 °F 21.9 °F 91% 30.01 in 5.0 mi NW 10.4 mph - 0.00 in Snow Light Snow
4:52 AM 24.1 °F 14.4 °F 21.9 °F 91% 30.01 in 3.0 mi NW 9.2 mph - 0.01 in Snow Light Snow
5:33 AM 24.8 °F 16.1 °F 21.2 °F 86% 29.96 in 2.5 mi NW 8.1 mph - 0.00 in Snow Light Snow
5:47 AM 24.8 °F 14.6 °F 21.2 °F 86% 29.97 in 3.0 mi WNW 10.4 mph - 0.00 in Snow Light Snow
5:52 AM 24.1 °F 14.4 °F 21.0 °F 88% 30.02 in 3.0 mi NW 9.2 mph - 0.00 in Snow Light Snow
6:37 AM 23.0 °F 12.4 °F 21.2 °F 93% 29.97 in 2.5 mi NW 10.4 mph - 0.01 in Snow Light Snow
6:52 AM 23.0 °F 12.4 °F 21.0 °F 92% 30.02 in 4.0 mi NW 10.4 mph - 0.01 in Snow Light Snow
7:35 AM 23.0 °F 13.9 °F 21.2 °F 93% 29.97 in 1.8 mi NW 8.1 mph - 0.00 in Snow Light Snow
7:49 AM 24.8 °F 14.6 °F 21.2 °F 86% 29.97 in 3.0 mi NW 10.4 mph - 0.00 in Snow Light Snow
7:52 AM 24.1 °F 14.4 °F 21.9 °F 91% 30.02 in 3.0 mi NW 9.2 mph - 0.00 in Snow Light Snow
8:02 AM 24.8 °F 15.3 °F 21.2 °F 86% 29.97 in 2.0 mi NW 9.2 mph - 0.00 in Snow Light Snow
8:22 AM 24.8 °F 15.3 °F 21.2 °F 86% 29.97 in 1.5 mi NW 9.2 mph - 0.00 in Snow Light Snow
8:52 AM 25.0 °F 13.1 °F 21.9 °F 88% 30.03 in 1.8 mi NW 13.8 mph - 0.00 in Snow Light Snow
9:15 AM 24.8 °F 13.4 °F 21.2 °F 86% 29.97 in 3.0 mi NW 12.7 mph - 0.00 in Snow Light Snow
9:23 AM 24.8 °F 12.4 °F 21.2 °F 86% 29.97 in 2.5 mi NW 15.0 mph - 0.00 in Snow Light Snow
9:32 AM 24.8 °F 12.9 °F 21.2 °F 86% 29.98 in 1.2 mi NW 13.8 mph - 0.00 in Snow Light Snow
9:52 AM 25.0 °F 12.6 °F 21.0 °F 85% 30.02 in 1.5 mi NW 15.0 mph 21.9 mph 0.00 in Snow Light Snow
9:59 AM 24.8 °F 12.9 °F 21.2 °F 86% 29.97 in 1.8 mi NW 13.8 mph - 0.00 in Snow Light Snow
10:04 AM 24.8 °F 12.4 °F 21.2 °F 86% 29.98 in 2.0 mi NNW 15.0 mph - 0.00 in Snow Light Snow
10:07 AM 24.8 °F 12.4 °F 21.2 °F 86% 29.98 in 3.0 mi NNW 15.0 mph - 0.00 in Snow Light Snow
10:17 AM 26.6 °F 16.2 °F 19.4 °F 74% 29.98 in 8.0 mi NNW 11.5 mph - 0.00 in   Overcast
10:26 AM 26.6 °F 15.7 °F 19.4 °F 74% 29.97 in 9.0 mi NNW 12.7 mph 19.6 mph 0.00 in   Overcast
10:38 AM 26.6 °F 14.7 °F 19.4 °F 74% 29.97 in 5.0 mi NNW 15.0 mph - 0.00 in Snow Light Snow
10:52 AM 26.1 °F 14.0 °F 19.9 °F 78% 30.03 in 9.0 mi NNW 15.0 mph 20.7 mph 0.00 in   Overcast
11:16 AM 26.6 °F 15.7 °F 19.4 °F 74% 29.97 in 1.8 mi NNW 12.7 mph - 0.00 in Snow Light Snow
11:52 AM 27.0 °F 14.7 °F 21.0 °F 78% 30.03 in 1.5 mi NW 16.1 mph - 0.00 in Snow Light Snow
12:11 PM 26.6 °F 15.2 °F 21.2 °F 80% 29.98 in 2.5 mi NNW 13.8 mph - 0.00 in Snow Light Snow
12:40 PM 28.4 °F 17.5 °F 19.4 °F 69% 29.97 in 2.5 mi NNW 13.8 mph 17.3 mph 0.00 in   Haze
12:52 PM 27.0 °F 14.7 °F 19.0 °F 72% 30.01 in 2.5 mi North 16.1 mph - 0.00 in   Haze
1:22 PM 28.4 °F 19.1 °F 19.4 °F 69% 29.96 in 7.0 mi North 10.4 mph - 0.00 in Snow Light Snow
1:49 PM 26.6 °F 16.2 °F 19.4 °F 74% 29.96 in 1.8 mi NNW 11.5 mph - 0.00 in Snow Light Snow
1:52 PM 26.1 °F 15.6 °F 21.9 °F 84% 30.01 in 1.2 mi NW 11.5 mph - 0.00 in Snow Light Snow
2:04 PM 26.6 °F 16.2 °F 19.4 °F 74% 29.96 in 4.0 mi NW 11.5 mph - 0.00 in Snow Light Snow
2:17 PM 26.6 °F 15.7 °F 21.2 °F 80% 29.96 in 2.5 mi NNW 12.7 mph - 0.00 in Snow Light Snow
2:23 PM 26.6 °F 16.8 °F 21.2 °F 80% 29.96 in 0.8 mi NW 10.4 mph - 0.00 in Snow Light Snow
2:37 PM 26.6 °F 15.7 °F 21.2 °F 80% 29.96 in 1.2 mi NNW 12.7 mph - 0.01 in Snow Light Snow
2:52 PM 27.0 °F 16.1 °F 21.9 °F 81% 30.01 in 1.5 mi NW 12.7 mph - 0.01 in Snow Light Snow
3:10 PM 26.6 °F 15.7 °F 21.2 °F 80% 29.96 in 2.5 mi NW 12.7 mph - 0.00 in Snow Light Snow
3:19 PM 26.6 °F 15.7 °F 21.2 °F 80% 29.95 in 1.2 mi NNW 12.7 mph - 0.00 in Snow Light Snow
3:52 PM 27.0 °F 18.7 °F 21.9 °F 81% 30.01 in 1.5 mi NNW 8.1 mph - 0.00 in Snow Light Snow
4:08 PM 26.6 °F 16.2 °F 21.2 °F 80% 29.96 in 1.2 mi NW 11.5 mph - 0.00 in Snow Light Snow
4:34 PM 26.6 °F 16.8 °F 21.2 °F 80% 29.96 in 1.5 mi NNW 10.4 mph - 0.00 in Snow Light Snow
4:37 PM 26.6 °F 16.2 °F 21.2 °F 80% 29.96 in 2.0 mi NW 11.5 mph - 0.00 in Snow Light Snow
4:44 PM 26.6 °F 17.5 °F 21.2 °F 80% 29.96 in 2.5 mi NW 9.2 mph - 0.00 in Snow Light Snow
4:52 PM 26.1 °F 16.2 °F 21.9 °F 84% 30.01 in 2.5 mi NW 10.4 mph - 0.00 in Snow Light Snow
5:25 PM 24.8 °F 14.6 °F 21.2 °F 86% 29.97 in 2.5 mi NNW 10.4 mph - 0.00 in Snow Light Snow
5:34 PM 24.8 °F 15.3 °F 21.2 °F 86% 29.97 in 4.0 mi NW 9.2 mph - 0.00 in   Overcast
5:52 PM 24.8 °F 15.3 °F 21.2 °F 86% 29.97 in 5.0 mi NW 9.2 mph - N/A   Overcast
6:37 PM 24.8 °F 15.3 °F 21.2 °F 86% 29.98 in 4.0 mi NW 9.2 mph - 0.00 in Snow Light Snow
6:44 PM 24.8 °F 16.1 °F 21.2 °F 86% 29.98 in 3.0 mi NW 8.1 mph - 0.00 in Snow Light Snow
6:52 PM 25.0 °F 14.8 °F 21.0 °F 85% 30.04 in 3.0 mi NW 10.4 mph - 0.00 in Snow Light Snow
7:39 PM 24.8 °F 16.1 °F 21.2 °F 86% 29.99 in 4.0 mi NW 8.1 mph - 0.00 in Snow Light Snow
7:52 PM 24.1 °F 13.7 °F 21.9 °F 91% 30.04 in 4.0 mi NW 10.4 mph - 0.00 in Snow Light Snow
8:12 PM 24.8 °F 14.0 °F 21.2 °F 86% 29.99 in 4.0 mi NW 11.5 mph - 0.00 in Snow Light Snow
8:52 PM 24.1 °F 13.7 °F 21.0 °F 88% 30.04 in 4.0 mi NW 10.4 mph - 0.00 in Snow Light Snow
9:35 PM 24.8 °F 16.1 °F 21.2 °F 86% 30.00 in 5.0 mi NNW 8.1 mph - 0.00 in Snow Light Snow
9:50 PM 24.8 °F 14.6 °F 21.2 °F 86% 29.99 in 5.0 mi NNW 10.4 mph - 0.00 in Snow Light Snow
9:52 PM 24.1 °F 14.4 °F 21.0 °F 88% 30.04 in 5.0 mi NNW 9.2 mph - 0.00 in Snow Light Snow
9:59 PM 24.8 °F 14.6 °F 19.4 °F 80% 29.99 in 7.0 mi NNW 10.4 mph - 0.00 in Snow Light Snow
10:52 PM 24.1 °F 16.0 °F 21.0 °F 88% 30.04 in 10.0 mi NW 6.9 mph - 0.00 in   Overcast
11:06 PM 24.8 °F 16.1 °F 21.2 °F 86% 29.99 in 5.0 mi NW 8.1 mph - 0.00 in Snow Light Snow
11:27 PM 23.0 °F 17.0 °F 21.2 °F 93% 29.98 in 2.5 mi WNW 4.6 mph - 0.00 in Snow Light Snow
11:37 PM 23.0 °F 13.9 °F 21.2 °F 93% 29.99 in 4.0 mi WNW 8.1 mph - 0.00 in Snow Light Snow
11:52 PM 23.0 °F 13.9 °F 19.4 °F 86% 29.99 in 6.0 mi WNW 8.1 mph - N/A Snow Light Snow